Starlink 2504

operational
NORAD ID: 48328 Int'l Des: 2021-036 Owner: SPXS Country: US Constellation: starlink
LEOCIRCULARSTARLINK_TYPE

Über Starlink 2504

Beschreibung wird geladen...

Live-Position

3D-Globus wird geladen...

Nächste Überflüge

Höhenverlauf

Altitude vs Time

uPlot chart will show altitude changes over time

Zweizeiliger Elementsatz

1 48328U 21036BE 25307.96143064 .00001607 00000-0 12674-3 0 9994
2 48328 53.0540 306.0317 0001492 88.0816 272.0344 15.06407979249084
Epoch: 3. Nov. 2025 • Age: 7 hours

Aktueller Status

Höhe 563.2 km
Geschwindigkeit 7.58 km/s
Subsatellitenpunkt -44.80°S, 31.18°E
Startdatum 29. Apr. 2021
Alter 4.5 years
Typ internet

Technische Details

Klassifizierung Payload
Masse 260.00 kg
Trockenmasse 248.00 kg
Gesamtmasse 260.00 kg
Länge 0.20 m
Durchmesser 2.80 m
Spannweite 9.00 m
Form Box + pan
Hersteller SPXS
Bus-Typ Starlink
Phasenstatus In Orbit
Besitzer/Staat SPXS/US

Große Konstellationen

Loading constellations...